Regional Weather Roundup
Issued by NWS

Home | Current Version | Previous Version | Graphics & Text | Print | Product List | Glossary On
Versions: 1 2 3 4 5 6 7 8 9 10 11 12 13 14 15 16 17 18 19 20 21 22 23 24 25 26 27 28 29 30 31 32 33 34 35 36 37 38 39 40 41 42 43 44 45 46 47 48 49 50
000
ASUS45 KCYS 040210
RWRWY

WYOMING REGIONAL WEATHER ROUNDUP
NATIONAL WEATHER SERVICE CHEYENNE WY
800 PM MDT FRI JUL 03 2015

NOTE:  "FAIR" INDICATES FEW OR NO CLOUDS BELOW 12,000 FEET
WITH NO SIGNIFICANT WEATHER AND/OR OBSTRUCTIONS TO VISIBILITY.

WYZ001-040300-
YELLOWSTONE NATIONAL PARK

CITY           SKY/WX    TMP DP  RH WIND       PRES   REMARKS
LK YELLOWSTONE   N/A     75  38  26 W3        30.20S
W YELLOWSTONE  NOT AVBL

$$
WYZ002>013-054>058-071-098>099-040300-
NORTHERN WYOMING

CITY           SKY/WX    TMP DP  RH WIND       PRES   REMARKS
JACKSON        FAIR      79  41  25 CALM      30.06S
CODY           FAIR      79  55  44 S6        29.98S
GREYBULL       FAIR      89  46  22 SW9       29.85S
WORLAND        FAIR      84  53  34 SE8       29.86F
SHERIDAN       FAIR      81  61  50 CALM      29.90F
BUFFALO        FAIR      79  55  43 SW6       29.99F
GILLETTE       FAIR      79  55  43 SE15      29.94S
HULETT         FAIR      73  63  68 SE9       29.97F
NEWCASTLE      FAIR      73  55  53 SE6       29.99S

$$
WYZ014>020-022>026-101>103-040300-
CENTRAL WYOMING

CITY           SKY/WX    TMP DP  RH WIND       PRES   REMARKS
BIG PINEY      FAIR      81  41  24 NW10      30.13S
PINEDALE       FAIR      77  39  25 W13       30.14S
DUBOIS         FAIR      77  34  20 N14G20    30.12R
LANDER         FAIR      83  49  30 SW10      29.95R
RIVERTON       FAIR      89  44  20 N6        29.95R
CASPER         FAIR      74  52  46 E12       29.98F
DOUGLAS        FAIR      74  46  36 SW13      30.05R

$$
WYZ021-027>030-104>119-040300-
SOUTHERN WYOMING

CITY           SKY/WX    TMP DP  RH WIND       PRES   REMARKS
EVANSTON       FAIR      81  38  21 W13       30.15S
KEMMERER       FAIR     N/A N/A N/A NW7       30.17S
FORT BRIDGER   CLEAR     84  34  16 NW13G20   30.17R
ROCK SPRINGS   FAIR      83  34  17 NW14G22   30.08S
DIXON          FAIR      82  39  21 E5        30.09S
RAWLINS        FAIR      76  44  32 E9        30.10S
SARATOGA       FAIR      77  41  27 N6        30.12F
LARAMIE        FAIR      69  49  48 SE15G24   30.19R
CHEYENNE       FAIR      72  48  42 SW6       30.12R
TORRINGTON     FAIR      78  57  48 SE10      29.99R
PINE BLUFFS    FAIR      72  57  60 SE8       30.07S

$$


USA.gov is the U.S. government's official web portal to all federal, state and local government web resources and services.